Regional Weather Roundup
Issued by NWS Cleveland, OH

Home | Current Version | Previous Version | Text Only | Print | Product List | Glossary Off
Versions: 1 2 3 4 5 6 7 8 9 10 11 12 13 14 15 16 17 18 19 20 21 22 23 24 25 26 27 28 29 30 31 32 33 34 35 36 37 38 39 40 41 42 43 44 45 46 47 48 49 50

000
ASUS41 KCLE 201002
RWRCLE
OHIO REGIONAL WEATHER ROUNDUP
NATIONAL WEATHER SERVICE CLEVELAND, OH
500 AM EST SAT DEC 20 2014

NOTE: "FAIR" INDICATES FEW OR NO CLOUDS BELOW 12,000 FEET WITH NO
SIGNIFICANT WEATHER AND/OR OBSTRUCTIONS TO VISIBILITY.

OHZ001>008-015>018-024>027-034-035-043-044-201100-
   NORTHWEST OHIO

CITY           SKY/WX    TMP DP  RH WIND       PRES   REMARKS
DEFIANCE       CLOUDY    28  24  85 CALM      30.28F
FINDLAY        CLOUDY    30  23  75 S3        30.27F
TOLEDO EXPRESS CLOUDY    29  20  69 CALM      30.28F
TOLEDO EXEC    CLOUDY    30  22  72 CALM      30.30S
LIMA           CLOUDY    31  24  75 SE5       30.26F WCI  26
$$

OHZ009>014-019>023-028>033-038-089-201100-
   NORTHEAST OHIO

CITY           SKY/WX    TMP DP  RH WIND       PRES   REMARKS
CLE-HOPKINS    CLOUDY    28  20  71 SW6       30.32R WCI  22
CLE-LAKEFRONT  CLOUDY    30  21  69 SW8       30.29R WCI  22
CUY CO. ARPT   NOT AVBL
LORAIN-ELYRIA  CLOUDY    28  21  75 SW5       30.30R WCI  23
ASHTABULA      CLOUDY    29  21  72 SW6       30.28R WCI  23
AKRON-CANTON   CLOUDY    28  20  71 CALM      30.27R
WOOSTER        CLOUDY    28  21  75 CALM      30.27R
MANSFIELD      CLOUDY    28  21  75 CALM      30.25F
YOUNGSTOWN     CLOUDY    27  19  72 N5        30.25S WCI  22
$$

OHZ042-051>053-060>062-070>072-077>081-201100-
  SOUTHWEST OHIO

CITY           SKY/WX    TMP DP  RH WIND       PRES   REMARKS
CINC-COVINGTON CLOUDY    30  21  69 CALM      30.24F
CINC-LUNKEN    CLOUDY    30  24  78 CALM      30.28F
HAMILTON       CLOUDY    31  24  75 N3        30.28F
DAYTON         CLOUDY    30  23  75 NE3       30.26F
WRIGHT-PAT AFB CLOUDY    29  24  80 NE3       30.26F
DAYTON GENERAL CLOUDY    29  23  78 N3        30.24F
WILMINGTON     CLOUDY    28  22  78 E3        30.24F
$$

OHZ036-037-039>041-045>050-054>059-063>069-073>076-082>088-201100-
  CENTRAL AND SOUTHEAST OHIO

CITY           SKY/WX    TMP DP  RH WIND       PRES   REMARKS
COLUMBUS       CLOUDY    29  22  75 CALM      30.26F
OSU AIRPORT    CLOUDY    29  22  75 CALM      30.26F
BOLTON FIELD   NOT AVBL
RICKENBACK AFB NOT AVBL
NEWARK         CLOUDY    30  23  75 NE3       30.25F
MARION         CLOUDY    29  21  72 CALM      30.27F
LANCASTER      CLOUDY    34  24  67 CALM      30.26F
ZANESVILLE     CLOUDY    29  22  75 NE3       30.26F
NEW PHILLY     CLOUDY    30  20  66 CALM      30.28S
$$



USA.gov is the U.S. government's official web portal to all federal, state and local government web resources and services.